Content
SEND FEEDBACK

Daily
Averages
Monthly
Summary
United States of America

UPI, GUAM


Home > North America > United States > Guam
Elevation: 53 feet     Latitude: 13 34N     Longitude: 144 55E

WEATHER
 
SELECT A DAY
Number of Records: 209,379;   Date Range: 1/1/95 - 9/21/14
 
SHARE

PRINT THIS DATA

[ ← Previous Day ]
WEATHER ALMANAC - OCTOBER 7, 2013
[ Next Day → ]
[ °C ]   °F
Weather ElementAverageHighLow
Temperature80.9 °F87.8 °F (1:01 pm)77 °F (4:14 am)
Dewpoint77.1 °F79 °F (9:54 am)75.2 °F (4:14 am)
Humidity88.4 %100 % (7:41 am)72 % (12:54 pm)
Barometer29.72 in29.77 in (7:41 am)29.63 in (2:54 pm)
Wind Speed5.4 mph12.7 mph (4:07 am)
Weather ElementAverage
Visibility7.5 mi
Wind DirectionENE (82.8 °)

Weather ElementTotal
Precipitation4.33 in
Cooling Degree Days17.4 (Base 65)
Growing Degree Days32.4 (Base 50)
Averaged from 50 records on October 7, 2013
WEATHER CONDITIONS BREAKOUT
WIND DIRECTION BREAKOUT
WEATHER BY HOUR - OCTOBER 7, 2013
[ °C ]   °F
Local TimeTemperatureDewpointHumidityBarometerVisibilityWind DirectionWind SpeedGust SpeedPrecipitationEventsConditions
1:54 AM82.0 °F78.1 °F88 %29.69 in10.0 miEast (80°)8.1 mphPartly Cloudy
2:54 AM81.0 °F78.1 °F91 %29.69 in10.0 miEast (90°)5.8 mph0.03 inOvercast
3:09 AM80.6 °F77.0 °F89 %29.71 in4.0 miEast (90°)5.8 mph0.03 inRainLight Rain
3:54 AM80.1 °F78.1 °F94 %29.69 in10.0 miEast (90°)3.5 mph0.05 inMostly Cloudy
4:07 AM78.8 °F77.0 °F94 %29.72 in2.5 miEast (90°)12.7 mph0.03 inRainRain
4:14 AM77.0 °F75.2 °F94 %29.71 in1.2 miESE (110°)4.6 mph0.27 inRainRain
4:19 AM78.8 °F75.2 °F89 %29.71 in3.0 miEast (100°)5.8 mph0.28 inRainRain
4:28 AM78.8 °F77.0 °F94 %29.71 in1.8 miEast (80°)12.7 mph0.35 inRainRain
4:39 AM78.8 °F77.0 °F94 %29.71 in3.0 miESE (120°)3.5 mph0.50 inRainRain
4:54 AM78.1 °F75.9 °F93 %29.69 in10.0 miESE (120°)3.5 mph0.50 inRainRain
5:38 AM78.8 °F77.0 °F94 %29.72 in5.0 miESE (110°)6.9 mph0.01 inMostly Cloudy
5:54 AM79.0 °F77.0 °F94 %29.70 in10.0 miEast (100°)3.5 mph0.03 inMostly Cloudy
6:07 AM78.8 °F77.0 °F94 %29.73 in10.0 miESE (110°)3.5 mphMostly Cloudy
6:14 AM78.8 °F77.0 °F94 %29.74 in5.0 miSE (130°)5.8 mphOvercast
6:22 AM78.8 °F75.2 °F89 %29.74 in2.0 miEast (90°)6.9 mph0.03 inOvercast
6:29 AM77.0 °F75.2 °F94 %29.74 in1.0 miCalm0.16 inOvercast
6:35 AM77.0 °F75.2 °F94 %29.74 in4.0 miCalm0.17 inOvercast
6:47 AM78.8 °F77.0 °F94 %29.74 in1.8 miWNW (300°)3.5 mph0.18 inOvercast
6:51 AM78.8 °F77.0 °F94 %29.75 in0.8 miVariable3.5 mph0.22 inOvercast
6:54 AM78.1 °F77.0 °F96 %29.72 in10.0 miCalm0.27 inOvercast
7:41 AM78.8 °F78.8 °F100 %29.77 in1.8 miVariable4.6 mph0.18 inRainHeavy Rain
7:52 AM78.8 °F77.0 °F94 %29.77 in2.5 miESE (110°)4.6 mph0.42 inRainHeavy Rain
7:54 AM78.1 °F77.0 °F96 %29.75 in2.5 miEast (90°)4.6 mph0.47 inRainHeavy Rain
8:05 AM78.8 °F77.0 °F94 %29.77 in4.0 miCalm0.05 inRainLight Rain
8:13 AM78.8 °F77.0 °F94 %29.76 in10.0 miSE (130°)3.5 mph0.05 inScattered Clouds
8:54 AM82.0 °F78.1 °F88 %29.75 in10.0 miESE (110°)9.2 mph0.05 inPartly Cloudy
9:54 AM84.0 °F79.0 °F85 %29.74 in10.0 miSE (130°)6.9 mphScattered Clouds
10:54 AM86.0 °F77.0 °F74 %29.73 in10.0 miEast (80°)8.1 mphPartly Cloudy
11:54 AM86.0 °F78.1 °F77 %29.71 in10.0 miESE (120°)8.1 mphMostly Cloudy
12:29 PM86.0 °F77.0 °F74 %29.71 in10.0 miSE (130°)9.2 mphMostly Cloudy
12:41 PM86.0 °F77.0 °F74 %29.71 in10.0 miSE (140°)9.2 mphScattered Clouds
12:52 PM86.0 °F77.0 °F74 %29.70 in10.0 miESE (120°)10.4 mphMostly Cloudy
12:54 PM87.1 °F77.0 °F72 %29.68 in10.0 miEast (100°)10.4 mphMostly Cloudy
1:01 PM87.8 °F78.8 °F75 %29.69 in10.0 miSE (140°)6.9 mphPartly Cloudy
1:54 PM87.1 °F77.0 °F72 %29.65 in10.0 miSSE (150°)6.9 mphScattered Clouds
2:54 PM86.0 °F77.0 °F74 %29.63 in10.0 miESE (120°)5.8 mphScattered Clouds
3:54 PM84.0 °F77.0 °F79 %29.64 in10.0 miESE (110°)5.8 mphScattered Clouds
4:54 PM84.0 °F75.9 °F76 %29.67 in10.0 miESE (120°)4.6 mphPartly Cloudy
5:54 PM82.9 °F78.1 °F85 %29.69 in10.0 miEast (90°)5.8 mphThunderstormThunderstorm
6:26 PM82.4 °F77.0 °F84 %29.71 in10.0 miENE (60°)4.6 mphScattered Clouds
6:36 PM82.4 °F77.0 °F84 %29.73 in10.0 miENE (60°)8.1 mphThunderstormThunderstorm
6:54 PM81.0 °F77.0 °F88 %29.70 in10.0 miNE (40°)6.9 mph0.00 inRain-ThunderstormLight Thunderstorms and Rain
7:04 PM80.6 °F77.0 °F89 %29.73 in10.0 miNNE (20°)6.9 mph0.00 inRainLight Rain
7:19 PM78.8 °F78.8 °F100 %29.74 in10.0 miNE (40°)4.6 mphRainLight Rain
7:42 PM80.6 °F77.0 °F89 %29.73 in10.0 miENE (60°)6.9 mphMostly Cloudy
7:54 PM80.1 °F78.1 °F94 %29.72 in10.0 miENE (60°)5.8 mphPartly Cloudy
8:54 PM78.8 °F77.0 °F94 %29.73 in10.0 miCalmPartly Cloudy
9:54 PM79.0 °F77.0 °F94 %29.74 in10.0 miCalmPartly Cloudy
10:54 PM78.1 °F77.0 °F96 %29.74 in10.0 miCalmPartly Cloudy
11:54 PM78.1 °F77.0 °F96 %29.72 in10.0 miCalmPartly Cloudy
Hourly data recorded from PGUM, located miles away from Upi, Guam







STORIES FROM OUR PARTNERS